Regional Weather Roundup
Issued by NWS

Home | Current Version | Previous Version | Text Only | Print | Product List | Glossary Off
Versions: 1 2 3 4 5 6 7 8 9 10 11 12 13 14 15 16 17 18 19 20 21 22 23 24 25 26 27 28 29 30 31 32 33 34 35 36 37 38 39 40 41 42 43 44 45 46 47 48 49 50

000
ASUS45 KBOU 221410
RWRCO

WEATHER ROUNDUP FOR COLORADO
NATIONAL WEATHER SERVICE DENVER/BOULDER CO
700 AM MST THU FEB 22 2018

NOTE: "FAIR" INDICATES FEW OR NO CLOUDS BELOW 12000 FEET WITH NO
SIGNIFICANT WEATHER AND/OR OBSTRUCTIONS TO VISIBILITY.

COZ001>005-013-030-031-221500-
...NORTHWEST COLORADO...

CITY           SKY/WX    TMP DP  RH WIND       PRES   REMARKS
CRAIG          CLOUDY    11   7  84 CALM      29.96S
HAYDEN         FLURRIES  11   7  84 E8        29.95R WCI  -1
MEEKER         LGT SNOW  14  10  84 CALM      29.94R FOG
RANGELY        LGT SNOW  12  10  90 CALM      30.01R
RABBIT EARS PA PTSUNNY    9   5  85 S6        29.81R WCI  -1
STEAMBOAT SPGS MOCLDY     6   3  88 CALM      29.94R
WALDEN         MOCLDY     1  -4  78 SE6       29.90R WCI -10
$$

COZ006>008-011-221500-
...WEST CENTRAL VALLEYS...

CITY           SKY/WX    TMP DP  RH WIND       PRES   REMARKS
GRAND JUNCTION LGT SNOW  26  26 100 E6        29.98S FOG     WCI  19
MONTROSE       CLOUDY    21  21 100 CALM      29.99S
EAGLE          LGT SNOW  19  16  88 CALM      29.97R FOG
RIFLE          LGT SNOW  23  21  92 E3        29.97S FOG
DELTA          CLOUDY    26  24  91 N3        29.99S
NUCLA          LGT SNOW  27  23  86 CALM      30.00S
$$

COZ017>023-064>068-221500-
...SOUTHWEST COLORADO...

CITY           SKY/WX    TMP DP  RH WIND       PRES   REMARKS
DURANGO        CLOUDY    26  25  96 SW7       29.96R WCI  18
CORTEZ         CLOUDY    23  22  96 CALM      29.98S
PAGOSA SPRINGS LGT SNOW  26  25  96 SW10      29.94R VSB 3/4 WCI  16
TELLURIDE      LGT SNOW  19  15  85 CALM      29.89F
WOLF CREEK PAS CLOUDY     9   9 100 S22G31    29.86R WCI -11
$$

COZ009-010-012-014-032>034-037-058>063-221500-
...CENTRAL COLORADO...

CITY           SKY/WX    TMP DP  RH WIND       PRES   REMARKS
ASPEN          CLOUDY    15  13  91 CALM      29.88R
BUENA VISTA    LGT SNOW  18  15  87 CALM      29.89R
COPPER MTN     LGT SNOW  12   7  79 W7        29.79S WCI   2
BERTHOUD PASS  CLOUDY     5  -6  61 W9        29.79S WCI  -9
COTTONWOOD PAS LGT SNOW  23  19  86 CALM      29.84R
GUNNISON       LGT SNOW  19  18  93 CALM      29.91S FOG
GRANBY         CLOUDY     5   1  83 NE5       29.92S WCI  -4
KREMMLING      FAIR      12   5  73 CALM      29.94S
LEADVILLE      LGT SNOW  11   8  88 CALM      29.82S FOG
MONARCH PASS   SNOW       9   5  85 W12G20    29.91S VSB 1/2 WCI  -6
SALIDA         CLOUDY    17  15  91 CALM      29.98R
SUNLIGHT       LGT SNOW   9   5  85 SW8       29.86S WCI  -4
WILKERSON PASS CLOUDY    14  10  85 SW5       29.84S FOG     WCI   6
$$

COZ069>075-221500-
...SAN LUIS VALLEY/SANGRE DE CRISTO MOUNTAINS...

CITY           SKY/WX    TMP DP  RH WIND       PRES   REMARKS
ALAMOSA        MOCLDY    24  20  84 S10       29.90R WCI  14
DEL NORTE      MOCLDY    19  16  90 CALM      29.88F
LA VETA PASS   SNOW      18  16  93 S15G30    29.98R VSB 1/2 WCI   3
SAGUACHE       NOT AVBL
$$

COZ035-036-038>040-221500-
...NORTHERN COLORADO FRONT RANGE...

CITY           SKY/WX    TMP DP  RH WIND       PRES   REMARKS
DENVER INTL AP MOCLDY    15   9  76 W8        29.98S WCI   4
AURORA         MOCLDY    13   9  85 W6        29.97F WCI   3
FRONT RANGE AP MOCLDY    12   9  85 SW6       29.98S WCI   3
ERIE MUNI ARPT FAIR      10   8  89 CALM      30.07S
BOULDER MUN AP FAIR      14  10  85 CALM      30.00R
CENTENNIAL     MOCLDY    14  10  84 CALM      29.95F
BROOMFIELD     MOCLDY    14  10  85 CALM      29.98R
FORT COLLINS   FAIR       9   6  88 E5        30.04R WCI   1
LONGMONT       FAIR      11   7  83 CALM      30.03R
$$

COZ041-046-047-076>085-087-088-221500-
...PIKES PEAK/PALMER DIVIDE AND SOUTHERN FOOTHILLS...

CITY           SKY/WX    TMP DP  RH WIND       PRES   REMARKS
COLO. SPRINGS  CLOUDY    14  12  92 S3        29.97S FOG
A. F. ACADEMY  CLOUDY    11   8  87 CALM      29.93S
SCHRIEVER AFB  NOT AVBL
CHEYENNE MTN   SNOWSHWR  11  10  93 CALM      29.86F
ELLICOTT       LGT SNOW N/A N/A N/A SW3       29.97R
FALCON         LGT SNOW  13  11  92 MISG      29.94S
FORT CARSON    CLOUDY    15  11  86 CALM      29.96F
LIMON          CLOUDY    12   7  80 SE12      30.02S WCI  -2
MONUMENT HILL  CLOUDY    10   7  85 S6        29.91S WCI   1
CANON CITY     NOT AVBL
WALSENBURG     NOT AVBL
TRINIDAD       FAIR      14  10  84 NE6       29.99R WCI   5
$$

COZ042>045-048>051-090-091-221500-
...NORTHEAST COLORADO...

CITY           SKY/WX    TMP DP  RH WIND       PRES   REMARKS
GREELEY ARPT   FAIR       7   4  87 W3        30.05R
AKRON          FAIR      13   7  77 SE12      30.06R WCI  -1
BURLINGTON     FAIR      10   4  76 SE9       30.12F WCI  -3
WRAY           MOCLDY    21  10  63 SE9       30.16R WCI  11
YUMA           CLOUDY    18   7  62 S10       30.11R WCI   6
STERLING       CLOUDY    19  10  68 S7        30.09R WCI  10
HOLYOKE        FAIR      21  10  63 S15       30.14S WCI   8
FORT MORGAN    CLOUDY    15  11  83 E5        30.06R WCI   8
$$

COZ086-089-092>099-221500-
...SOUTHEAST COLORADO...

CITY           SKY/WX    TMP DP  RH WIND       PRES   REMARKS
PUEBLO         CLOUDY    20  15  81 E8        30.04F HAZE    WCI  10
LA JUNTA       FAIR      13   8  81 W5        30.08S WCI   5
LAMAR          FAIR      16   6  65 E6        30.11F WCI   7
SPRINGFIELD      N/A     19   8  62 S14       30.07F WCI   6
$$



USA.gov is the U.S. government's official web portal to all federal, state and local government web resources and services.